Regional Weather Roundup
Issued by NWS

Home | Current Version | Previous Version | Graphics & Text | Print | Product List | Glossary On
Versions: 1 2 3 4 5 6 7 8 9 10 11 12 13 14 15 16 17 18 19 20 21 22 23 24 25 26 27 28 29 30 31 32 33 34 35 36 37 38 39 40 41 42 43 44 45
000
ASUS45 KBOU 010907
RWRCO

WEATHER ROUNDUP FOR COLORADO
NATIONAL WEATHER SERVICE DENVER/BOULDER CO
300 AM MDT WED OCT 01 2014

NOTE: "FAIR" INDICATES FEW OR NO CLOUDS BELOW 12000 FEET WITH NO
SIGNIFICANT WEATHER AND/OR OBSTRUCTIONS TO VISIBILITY.

COZ001>005-013-030-031-011000-
...NORTHWEST COLORADO...

CITY           SKY/WX    TMP DP  RH WIND       PRES   REMARKS
CRAIG          MOCLDY    44  40  85 NE5       29.98F
HAYDEN         CLOUDY    43  39  87 SE7       29.98F
MEEKER         MOCLDY    41  38  89 CALM      29.98S
MOUNT WERNER   NOT AVBL
STEAMBOAT SPGS CLOUDY    41  39  92 CALM      30.00S
WALDEN         CLOUDY    37  32  81 S5        30.00F
$$

COZ006>008-011-011000-
...WEST CENTRAL VALLEYS...

CITY           SKY/WX    TMP DP  RH WIND       PRES   REMARKS
GRAND JUNCTION MOCLDY    48  43  82 SE10      29.90F
MONTROSE       CLOUDY    47  39  74 SE6       29.98S
EAGLE          PTCLDY    41  41 100 CALM      30.03F
RIFLE          MOCLDY    44  40  85 NE3       29.97S
DELTA          CLOUDY    49  43  79 E8        29.95F
NUCLA          CLOUDY    45  43  93 S6        30.01S
$$

COZ017>023-064>068-011000-
...SOUTHWEST COLORADO...

CITY           SKY/WX    TMP DP  RH WIND       PRES   REMARKS
DURANGO        PTCLDY    38  36  92 NE5       30.01F
CORTEZ         CLEAR     41  38  89 E3        29.97F
PAGOSA SPRINGS PTCLDY    37  36  96 CALM      30.07S
TELLURIDE      CLOUDY   N/A N/A N/A S5        30.09F
WOLF CREEK PAS MOCLDY    28  28 100 S8        30.20F WCI  20
$$

COZ009-010-012-014-032>034-037-058>063-011000-
...CENTRAL COLORADO...

CITY           SKY/WX    TMP DP  RH WIND       PRES   REMARKS
ASPEN          PTCLDY    34  32  92 S3        30.02F
BUENA VISTA    PTCLDY    34  30  86 CALM      30.03S
COPPER MTN     CLOUDY    34  27  75 W10       30.15S WCI  26
BERTHOUD PASS  MOCLDY    23  21  93 NW21      30.15F WCI   8
COTTONWOOD PAS PTCLDY    37  28  70 N3        30.09S
GUNNISON       CLEAR     32  27  80 CALM      30.08S
KREMMLING      CLOUDY    41  36  81 CALM      30.03F
LEADVILLE      MOCLDY    33  26  75 NE7       30.08F WCI  27
MONARCH PASS   FOG       30  28  93 MISG      30.26S VSB<1/4
SALIDA         PTCLDY    44  33  64 N8        30.09S
SUNLIGHT       MOCLDY    34  34 100 CALM      30.13S
WILKERSON PASS NOT AVBL
$$

COZ069>075-011000-
...SAN LUIS VALLEY/SANGRE DE CRISTO MOUNTAINS...

CITY           SKY/WX    TMP DP  RH WIND       PRES   REMARKS
ALAMOSA        PTCLDY    33  30  88 CALM      30.04S
LA VETA PASS   PTCLDY    34  30  86 SW7       30.10F WCI  28
SAGUACHE       PTCLDY    36  32  87 NW9       30.07S
$$

COZ035-036-038>040-011000-
...NORTHERN COLORADO FRONT RANGE...

CITY           SKY/WX    TMP DP  RH WIND       PRES   REMARKS
DENVER INTL AP MOCLDY    50  36  58 SW8       29.88S
DMNS CITY PARK   N/A     48  38  67 S5        29.87F
AURORA         PTCLDY    46  36  69 S7        29.90S
FRONT RANGE AP PTCLDY    50  37  62 SW8       29.89S
ERIE MUNI ARPT MOCLDY    48  38  67 SW6       29.86F
BOULDER MUN AP MOCLDY    48  36  61 CALM      29.86S
CENTENNIAL     PTCLDY    44  37  76 NE5       29.90S
BROOMFIELD     MOCLDY    48  34  57 W7        29.88F
FORT COLLINS   PTCLDY    48  39  71 CALM      29.88S
LONGMONT       PTCLDY    50  40  67 NW3       29.88R
$$

COZ041-046-047-076>085-087-088-011000-
...PIKES PEAK/PALMER DIVIDE AND SOUTHERN FOOTHILLS...

CITY           SKY/WX    TMP DP  RH WIND       PRES   REMARKS
COLO. SPRINGS  CLEAR     50  32  50 N3        29.92F
A. F. ACADEMY  CLEAR     53  26  35 W8G18     29.92F
ELLICOTT       NOT AVBL
FALCON         CLEAR     45  29  53 W8        29.94F
FORT CARSON    CLEAR     47  33  58 NW5       29.89F
LIMON          CLEAR     42  39  89 NW5       29.90S
MONUMENT HILL  CLEAR     41  30  65 W7        29.94F
TRINIDAD       PTCLDY    46  34  62 W6        29.91S
$$

COZ042>045-048>051-090-091-011000-
...NORTHEAST COLORADO...

CITY           SKY/WX    TMP DP  RH WIND       PRES   REMARKS
GREELEY ARPT   CLEAR     46  39  76 NE3       29.86F
AKRON          CLEAR     48  40  73 N10       29.85F
BURLINGTON     MOCLDY    54  45  71 NW10      29.82F
WRAY           PTCLDY    49  47  92 W6        29.82R
STERLING       CLEAR     50  45  81 CALM      29.82F
HOLYOKE        PTCLDY    54  46  76 W8        29.81S
FORT MORGAN    CLEAR     46  40  78 W6        29.85F
$$

COZ086-089-092>099-011000-
...SOUTHEAST COLORADO...

CITY           SKY/WX    TMP DP  RH WIND       PRES   REMARKS
PUEBLO         CLEAR     47  37  68 W6        29.86S
LA JUNTA       CLEAR     49  38  65 W10       29.83R
LAMAR          CLEAR     46  44  93 SW5       29.79S
SPRINGFIELD      N/A     53  36  52 W10       29.82F
$$



USA.gov is the U.S. government's official web portal to all federal, state and local government web resources and services.